Location: Korczew
(51.3586°N, 19.4491°E)
Time: 08:12:13
(UTC+00:00)

Cosmos 1459 Rocket - Pass Details

Date: 19 May 2025
Orbit: 936 x 998 km, 83.0° (Epoch: 16 June)

Event Time Altitude Azimuth Distance (km) Brightness Sun altitude
Rises 22:55:01 0° 350° (N) 3,623 8.5 -18.6°
Reaches altitude 10° 22:57:30 10° 351° (N) 2,681 7.5 -18.5°
Maximum altitude 23:03:39 83° 79° (E) 970 4.0 -18.4°
Enters shadow 23:07:06 28° 167° (SSE) 1,713 4.8 -18.4°
